{"data":{"norad_id":63089,"intl_designator":"2025-037N","name":"STARLINK-32910","alt_names":[],"object_type":"PAYLOAD","status":"ACTIVE","operator":null,"country":"US","launch_date":"2025-02-23","launch_site_code":"AFWTR","launch_vehicle":null,"mission":null,"orbit_class":"UNKNOWN","rcs_meters":null,"size_class":null,"mass_kg":null,"dimensions":null,"purposes":["comms"],"wikipedia_slug":null,"has_3d_model":false,"image_url":null,"decayed_at":null,"tle_current":{"epoch":"2026-05-25T03:31:10.149600Z","epoch_age_seconds":62093,"freshness":"FRESH","line1":"1 63089U 25037N   26145.14664525  .00003654  00000+0  31373-3 0  9991","line2":"2 63089  70.0003 161.7121 0003917 263.8488  96.2225 14.98348200 70053","mean_motion":14.983482,"eccentricity":0.0003917,"inclination_deg":70.0003,"raan_deg":161.7121,"arg_perigee_deg":263.8488,"mean_anomaly_deg":96.2225,"bstar":0.00031373,"rev_number":7005,"period_min":96.105831741914,"perigee_km":569.27724100549,"apogee_km":574.72197802539,"semimajor_km":6950.1366095154,"source":"CELESTRAK","updated_at":"2026-05-25T13:38:19.879371Z"}}}